Location: Cadenet
(43.7345°N, 5.3750°E)
Time: 18:31:19
(UTC+00:00)

USA 229 DEB - Pass Details

Date: 18 February 2020
Orbit: 988 x 1224 km, 63.4° (Epoch: 26 March)

Event Time Altitude Azimuth Distance (km) Brightness Sun altitude
Exits shadow 04:41:14 33° 251° (WSW) 1,885 4.4 -21.0°
Maximum altitude 04:41:27 33° 247° (WSW) 1,884 4.5 -20.9°
Drops below altitude 10° 04:48:03 10° 187° (S) 3,156 6.1 -19.7°
Sets 04:51:07 0° 178° (S) 4,128 6.8 -19.2°
